Baraboo, WI

2:47 AM CST on November 14, 2019 (GMT -0600)
Baraboo Wisconsin Dells

Weather History for KDLL - October, 2019

Change the Weather History Date:

Sunday, October 13, 2019

  Actual Average Record
Temperature  
Mean Temperature 36 °F -  
Max Temperature 39 °F 60 °F 87 °F (1975)
Min Temperature 32 °F 35 °F 20 °F (1979)
Degree Days  
Heating Degree Days 30    
Moisture  
Dew Point 31 °F    
Average Humidity 85    
Maximum Humidity 96    
Minimum Humidity 72    
Precipitation  
Precipitation 0.00 in - - ()
Sea Level Pressure  
Sea Level Pressure 29.79 in    
Wind  
Wind Speed 9 mph ()    
Max Wind Speed 15 mph    
Max Gust Speed 21 mph    
Visibility 10.0 miles    
Events      
Averages and records for this station are not official NWS values.
T = Trace of Precipitation, MM = Missing Value Source: Averaged Metar Reports

Daily Weather History Graph

Daily Weather History Graph

Search for Another Location

Airport or City:

Astronomy

Oct. 13, 2019 Rise Set
Actual Time 7:10 AM CDT 6:19 PM CDT
Civil Twilight 6:41 AM CDT 6:48 PM CDT
Nautical Twilight 6:08 AM CDT 7:21 PM CDT
Astronomical Twilight 5:35 AM CDT 7:54 PM CDT
Moon 6:43 PM CDT (10/13) 6:42 AM CDT (10/13)
Length of Visible Light 12h 06m
Length of Day
11h 09m
Full, 100% of the Moon is Illuminated
Oct 13
Full
Oct 13
Full
Oct 21
Last Quarter
Oct 27
New
Nov 4
First Quarter

Hourly Weather History & Observations

Time (CDT) Temp. Windchill Dew Point Humidity Pressure Visibility Wind Dir Wind Speed Gust Speed Precip Events Conditions
12:15 AM 32.9 °F 24.7 °F 32.0 °F 96% 29.72 in 10.0 mi WSW 10.4 mph - N/A   Overcast
12:55 AM 32.9 °F 24.1 °F 32.0 °F 96% 29.72 in 10.0 mi SW 11.5 mph 16.1 mph N/A   Overcast
1:15 AM 32.9 °F 24.7 °F 32.0 °F 96% 29.72 in 10.0 mi SW 10.4 mph - N/A   Overcast
1:35 AM 33.1 °F 26.1 °F 32.0 °F 96% 29.72 in 10.0 mi SW 8.1 mph - N/A   Overcast
1:55 AM 33.1 °F 24.4 °F 32.0 °F 96% 29.72 in 10.0 mi SW 11.5 mph - N/A   Overcast
2:15 AM 33.1 °F 24.4 °F 32.0 °F 96% 29.73 in 10.0 mi WSW 11.5 mph - N/A   Overcast
2:35 AM 33.3 °F 25.1 °F 32.0 °F 95% 29.73 in 10.0 mi SW 10.4 mph - N/A   Overcast
2:55 AM 33.3 °F 24.6 °F 32.0 °F 95% 29.73 in 10.0 mi SW 11.5 mph 16.1 mph N/A   Overcast
3:35 AM 33.1 °F 24.9 °F 31.8 °F 95% 29.73 in 10.0 mi SW 10.4 mph - N/A   Overcast
3:55 AM 33.1 °F 23.4 °F 31.6 °F 94% 29.72 in 10.0 mi SSW 13.8 mph 17.3 mph N/A   Overcast
4:15 AM 33.1 °F 24.4 °F 31.8 °F 95% 29.72 in 10.0 mi SW 11.5 mph - N/A   Overcast
4:35 AM 33.3 °F 25.7 °F 31.8 °F 94% 29.73 in 10.0 mi SW 9.2 mph - N/A   Overcast
4:55 AM 33.1 °F 25.5 °F 31.6 °F 94% 29.73 in 10.0 mi SW 9.2 mph - N/A   Overcast
5:15 AM 33.3 °F 25.7 °F 31.3 °F 92% 29.73 in 10.0 mi SW 9.2 mph - N/A   Overcast
5:35 AM 33.3 °F 25.1 °F 31.5 °F 93% 29.73 in 10.0 mi SW 10.4 mph - N/A   Overcast
5:55 AM 33.3 °F 26.4 °F 31.1 °F 92% 29.73 in 10.0 mi WSW 8.1 mph - N/A   Overcast
6:35 AM 33.6 °F 25.0 °F 30.0 °F 87% 29.74 in 10.0 mi WSW 11.5 mph - N/A   Overcast
6:55 AM 33.8 °F 27.0 °F 29.8 °F 85% 29.74 in 10.0 mi WSW 8.1 mph - N/A   Overcast
7:15 AM 33.6 °F 26.2 °F 30.2 °F 87% 29.74 in 10.0 mi SW 9.2 mph - N/A   Overcast
7:35 AM 33.3 °F 25.7 °F 30.9 °F 91% 29.74 in 10.0 mi WSW 9.2 mph - N/A   Overcast
7:55 AM 33.4 °F 25.4 °F 30.9 °F 90% 29.75 in 10.0 mi WSW 10.4 mph - N/A   Overcast
8:15 AM 33.8 °F 25.8 °F 30.9 °F 89% 29.75 in 10.0 mi SW 10.4 mph - N/A   Overcast
8:35 AM 34.0 °F 26.0 °F 31.1 °F 89% 29.75 in 10.0 mi SW 10.4 mph - N/A   Overcast
8:55 AM 34.2 °F 26.2 °F 30.9 °F 88% 29.75 in 10.0 mi WSW 10.4 mph - N/A   Overcast
9:15 AM 35.2 °F 28.1 °F 31.1 °F 85% 29.75 in 10.0 mi WSW 9.2 mph - N/A   Overcast
9:55 AM 34.7 °F 26.4 °F 30.4 °F 84% 29.76 in 10.0 mi WSW 11.5 mph 17.3 mph N/A   Overcast
10:15 AM 35.1 °F 26.9 °F 30.4 °F 83% 29.77 in 10.0 mi WSW 11.5 mph - N/A   Overcast
10:35 AM 35.2 °F 26.2 °F 30.2 °F 82% 29.77 in 10.0 mi WSW 13.8 mph 19.6 mph N/A   Overcast
10:55 AM 35.2 °F 27.1 °F 30.4 °F 82% 29.77 in 10.0 mi WSW 11.5 mph 16.1 mph N/A   Overcast
11:15 AM 35.6 °F 28.0 °F 30.9 °F 83% 29.77 in 10.0 mi WSW 10.4 mph - N/A   Overcast
11:35 AM 36.0 °F 28.5 °F 31.1 °F 82% 29.77 in 10.0 mi SW 10.4 mph 17.3 mph N/A   Overcast
11:55 AM 36.1 °F 27.3 °F 30.9 °F 81% 29.77 in 10.0 mi SW 13.8 mph 19.6 mph N/A   Overcast
12:15 PM 36.1 °F 27.7 °F 31.1 °F 82% 29.77 in 10.0 mi SW 12.7 mph 16.1 mph N/A   Overcast
12:35 PM 36.1 °F 28.2 °F 30.9 °F 81% 29.77 in 10.0 mi WSW 11.5 mph - N/A   Overcast
12:55 PM 36.5 °F 29.2 °F 31.1 °F 81% 29.78 in 10.0 mi WSW 10.4 mph 16.1 mph N/A   Overcast
1:15 PM 36.5 °F 28.7 °F 31.1 °F 81% 29.78 in 10.0 mi WSW 11.5 mph - N/A   Overcast
1:35 PM 36.3 °F 28.9 °F 31.1 °F 81% 29.78 in 10.0 mi WSW 10.4 mph - N/A   Light Drizzle
1:55 PM 36.5 °F 28.2 °F 31.3 °F 81% 29.79 in 10.0 mi WSW 12.7 mph 17.3 mph N/A   Overcast
2:15 PM 37.0 °F 28.1 °F 31.1 °F 79% 29.79 in 10.0 mi WSW 15.0 mph 20.7 mph N/A   Overcast
2:35 PM 37.6 °F 29.1 °F 31.3 °F 78% 29.78 in 10.0 mi West 13.8 mph 18.4 mph N/A   Overcast
2:55 PM 38.3 °F 30.9 °F 30.9 °F 75% 29.79 in 10.0 mi West 11.5 mph - N/A   Overcast
3:15 PM 38.3 °F 31.9 °F 31.5 °F 76% 29.79 in 10.0 mi West 9.2 mph - N/A   Overcast
3:35 PM 38.7 °F 32.4 °F 31.6 °F 76% 29.80 in 10.0 mi West 9.2 mph 17.3 mph N/A   Overcast
3:55 PM 38.7 °F 31.8 °F 30.9 °F 74% 29.80 in 10.0 mi WSW 10.4 mph - N/A   Overcast
4:15 PM 38.8 °F 32.1 °F 30.7 °F 73% 29.81 in 10.0 mi West 10.4 mph - N/A   Overcast
4:35 PM 38.7 °F 32.4 °F 30.4 °F 72% 29.82 in 10.0 mi WSW 9.2 mph - N/A   Overcast
4:55 PM 39.2 °F 32.5 °F 30.7 °F 72% 29.82 in 10.0 mi WSW 10.4 mph - N/A   Overcast
5:15 PM 38.7 °F 31.4 °F 30.9 °F 74% 29.84 in 10.0 mi West 11.5 mph 17.3 mph N/A   Overcast
5:35 PM 38.7 °F 30.9 °F 30.9 °F 74% 29.84 in 10.0 mi West 12.7 mph 16.1 mph N/A   Overcast
5:55 PM 38.3 °F 30.9 °F 31.1 °F 75% 29.84 in 10.0 mi WSW 11.5 mph - N/A   Overcast
6:15 PM 38.3 °F 31.4 °F 30.9 °F 75% 29.85 in 10.0 mi West 10.4 mph - N/A   Overcast
6:35 PM 38.3 °F 31.4 °F 31.1 °F 75% 29.85 in 10.0 mi WSW 10.4 mph - N/A   Overcast
6:55 PM 37.9 °F 33.5 °F 31.3 °F 77% 29.86 in 10.0 mi WSW 5.8 mph - N/A   Overcast
7:15 PM 37.8 °F 31.8 °F 31.5 °F 78% 29.87 in 10.0 mi WSW 8.1 mph - N/A   Overcast
7:35 PM 37.6 °F 32.3 °F 31.5 °F 79% 29.87 in 10.0 mi WSW 6.9 mph - N/A   Overcast
7:55 PM 37.4 °F 32.8 °F 31.5 °F 79% 29.89 in 10.0 mi West 5.8 mph - N/A   Overcast
8:15 PM 37.0 °F 33.3 °F 31.6 °F 81% 29.89 in 10.0 mi West 4.6 mph - N/A   Overcast
8:35 PM 36.9 °F 31.4 °F 31.3 °F 80% 29.89 in 10.0 mi West 6.9 mph - N/A   Mostly Cloudy
8:55 PM 35.6 °F 30.7 °F 31.1 °F 84% 29.90 in 10.0 mi West 5.8 mph - N/A   Scattered Clouds
9:15 PM 34.3 °F 29.2 °F 30.7 °F 87% 29.90 in 10.0 mi WSW 5.8 mph - N/A   Clear
9:35 PM 34.2 °F 29.0 °F 30.7 °F 87% 29.90 in 10.0 mi WSW 5.8 mph - N/A   Clear
9:55 PM 34.5 °F 30.4 °F 30.9 °F 87% 29.90 in 10.0 mi WSW 4.6 mph - N/A   Mostly Cloudy
10:15 PM 33.4 °F 28.1 °F 30.6 °F 89% 29.91 in 10.0 mi SW 5.8 mph - N/A   Scattered Clouds
10:35 PM 32.9 °F 29.8 °F 30.0 °F 89% 29.91 in 10.0 mi WSW 3.5 mph - N/A   Clear
10:55 PM 33.1 °F 27.7 °F 30.4 °F 90% 29.92 in 10.0 mi West 5.8 mph - N/A   Clear
11:15 PM 33.3 °F 27.1 °F 30.2 °F 89% 29.92 in 10.0 mi West 6.9 mph - N/A   Clear
11:55 PM 32.9 °F 27.5 °F 30.0 °F 89% 29.92 in 10.0 mi WSW 5.8 mph - N/A   Clear